Weather reports worldwide

Advertisment
Malaga/Aeropuerto, Spain (8482): temperature & dewpoint: 30.03.2020 22:00:00 - 05.04.2020 22:00:00 (CEST)Malaga/Aeropuerto, Spain (8482): wind speed: 30.03.2020 22:00:00 - 05.04.2020 22:00:00 (CEST)Malaga/Aeropuerto, Spain (8482): wind direction: 30.03.2020 22:00:00 - 05.04.2020 22:00:00 (CEST)Malaga/Aeropuerto, Spain (8482): reduced air pressure: 30.03.2020 22:00:00 - 05.04.2020 22:00:00 (CEST)Malaga/Aeropuerto, Spain (8482): visibility: 30.03.2020 22:00:00 - 05.04.2020 22:00:00 (CEST)
Date & Time tt [°C] td [°C] ff [km/h] ff [kn] dd ppp [hPa] vv [km]
05.04.2020 22:00:00 15,0 12,3 9 5 ESE 1020,9 -
05.04.2020 21:00:00 15,5 12,2 11 6 E 1020,2 -
05.04.2020 20:00:00 16,3 12,2 13 7 ESE 1019,8 30
05.04.2020 19:00:00 17,0 12,1 13 7 ESE 1019,5 -
05.04.2020 18:00:00 18,3 12,7 13 7 ESE 1019,4 -
05.04.2020 17:00:00 18,3 12,8 15 8 ESE 1019,3 30
05.04.2020 16:00:00 18,4 12,3 16 9 ESE 1019,6 -
05.04.2020 15:00:00 18,8 11,7 16 9 SE 1020,1 30
05.04.2020 14:00:00 18,2 11,3 16 9 SE 1020,6 30
05.04.2020 13:00:00 18,4 11,8 15 8 SE 1020,7 -
05.04.2020 12:00:00 17,7 11,1 9 5 SE 1020,8 -
05.04.2020 11:00:00 15,5 10,3 8 4 NW 1020,7 30
05.04.2020 10:00:00 13,5 11,1 9 5 W 1020,1 -
05.04.2020 09:00:00 11,3 9,7 8 4 W 1019,7 30
05.04.2020 08:00:00 11,0 9,1 15 8 W 1019,1 20
05.04.2020 07:00:00 11,2 9,6 9 5 WNW 1018,6 -
05.04.2020 06:00:00 11,1 9,4 13 7 WNW 1018,4 -
05.04.2020 05:00:00 11,3 9,9 11 6 W 1018,4 15
05.04.2020 04:00:00 11,4 10,1 9 5 W 1018,4 -
05.04.2020 03:00:00 11,8 10,3 8 4 WNW 1018,8 -
05.04.2020 02:00:00 12,3 10,5 5 3 W 1019,0 15
05.04.2020 01:00:00 12,9 11,1 9 5 W 1019,1 -
05.04.2020 00:00:00 13,2 11,0 5 3 WSW 1019,1 -
04.04.2020 23:00:00 14,2 11,4 4 2 SSE 1018,9 15
04.04.2020 22:00:00 15,4 11,7 2 1 ESE 1018,3 -
04.04.2020 21:00:00 16,2 11,4 5 3 SE 1017,1 -
04.04.2020 20:00:00 16,7 11,0 9 5 SSE 1016,5 15
04.04.2020 19:00:00 18,0 11,9 13 7 SSE 1016,3 -
04.04.2020 18:00:00 16,9 11,6 16 9 SSE 1016,1 -
04.04.2020 17:00:00 16,4 11,7 15 8 E 1015,9 10
04.04.2020 16:00:00 16,2 12,2 21 11 E 1016,1 -
04.04.2020 15:00:00 16,6 11,5 16 9 SSE 1017,7 30
04.04.2020 14:00:00 17,2 11,3 22 12 SE 1017,3 30
04.04.2020 13:00:00 17,5 10,8 21 11 SE 1016,9 -
04.04.2020 12:00:00 18,4 10,4 22 12 ESE 1016,5 -
04.04.2020 11:00:00 16,8 10,7 24 13 E 1015,9 25
04.04.2020 10:00:00 15,9 11,1 21 11 E 1015,5 -
04.04.2020 09:00:00 15,4 11,2 16 9 E 1015,4 30
04.04.2020 08:00:00 14,0 10,9 13 7 E 1015,3 15
04.04.2020 07:00:00 14,1 10,6 13 7 E 1015,0 -
04.04.2020 06:00:00 14,2 10,5 15 8 E 1015,1 -
04.04.2020 05:00:00 14,3 10,4 18 10 E 1015,6 15
04.04.2020 04:00:00 14,3 11,0 16 9 E 1016,0 -
04.04.2020 03:00:00 14,2 11,2 13 7 E 1016,4 -
04.04.2020 02:00:00 14,3 11,5 15 8 E 1016,9 15
04.04.2020 01:00:00 14,3 11,3 13 7 E 1017,2 -
04.04.2020 00:00:00 14,8 10,9 16 9 E 1017,7 -
03.04.2020 23:00:00 14,9 11,2 18 10 E 1017,7 15
03.04.2020 22:00:00 15,0 10,9 15 8 E 1017,0 -
03.04.2020 21:00:00 15,3 11,8 15 8 E 1016,5 -
03.04.2020 20:00:00 16,4 11,8 16 9 E 1016,5 40
03.04.2020 19:00:00 17,3 12,6 18 10 E 1016,3 -
03.04.2020 18:00:00 18,2 12,6 21 11 ESE 1016,4 -
03.04.2020 17:00:00 18,0 12,3 22 12 ESE 1016,5 40
03.04.2020 16:00:00 18,2 11,3 24 13 ESE 1016,7 -
03.04.2020 15:00:00 18,3 11,7 22 12 E 1017,1 40
03.04.2020 14:00:00 17,4 11,2 22 12 E 1017,5 40
03.04.2020 13:00:00 17,5 11,7 22 12 E 1017,8 -
03.04.2020 12:00:00 17,3 10,7 18 10 E 1017,9 -
03.04.2020 11:00:00 16,5 9,5 5 3 E 1017,2 40
03.04.2020 10:00:00 14,0 8,1 18 10 WNW 1016,4 -
03.04.2020 09:00:00 9,9 6,9 24 13 WNW 1016,0 40
03.04.2020 08:00:00 9,1 6,6 22 12 W 1015,3 30
03.04.2020 07:00:00 10,9 6,9 21 11 W 1014,9 -
03.04.2020 06:00:00 10,0 6,9 11 6 WNW 1015,1 -
03.04.2020 05:00:00 10,7 7,1 11 6 W 1015,1 20
03.04.2020 04:00:00 11,8 7,0 16 9 WNW 1015,2 -
03.04.2020 03:00:00 12,1 7,1 11 6 WNW 1015,6 -
03.04.2020 02:00:00 13,0 7,0 13 7 W 1015,9 20
03.04.2020 01:00:00 13,6 7,1 18 10 W 1015,7 -
03.04.2020 00:00:00 13,6 7,3 24 13 WNW 1015,1 -
02.04.2020 23:00:00 13,1 7,6 18 10 W 1014,9 20
02.04.2020 22:00:00 14,0 7,4 24 13 W 1014,4 -
02.04.2020 21:00:00 14,9 7,4 22 12 WNW 1013,5 -
02.04.2020 20:00:00 16,4 6,6 24 13 WNW 1012,9 30
02.04.2020 19:00:00 14,5 8,7 8 4 E 1012,9 -
02.04.2020 18:00:00 15,0 9,1 11 6 E 1012,2 -
02.04.2020 17:00:00 15,7 7,4 22 12 W 1012,0 20
02.04.2020 16:00:00 14,5 8,1 21 11 WSW 1012,1 -
02.04.2020 15:00:00 15,0 9,5 11 6 SE 1011,8 12
02.04.2020 14:00:00 13,9 8,3 2 1 E 1011,9 15
02.04.2020 13:00:00 12,5 8,3 0 0 N 1012,7 -
02.04.2020 12:00:00 12,5 7,8 4 2 S 1012,4 -
02.04.2020 11:00:00 12,0 8,1 4 2 SW 1012,1 15
02.04.2020 10:00:00 9,8 7,4 8 4 W 1011,8 -
02.04.2020 09:00:00 8,9 7,5 11 6 NNW 1011,6 9
02.04.2020 08:00:00 10,0 7,5 41 22 NW 1011,4 5
02.04.2020 07:00:00 11,5 9,5 4 2 SE 1010,6 -
02.04.2020 06:00:00 11,0 8,8 0 0 N 1010,8 -
02.04.2020 05:00:00 11,3 8,1 2 1 SSW 1011,4 20
02.04.2020 04:00:00 10,8 7,8 8 4 W 1012,0 -
02.04.2020 03:00:00 11,0 7,8 8 4 WNW 1013,0 -
02.04.2020 02:00:00 11,0 7,8 5 3 SW 1013,4 20
02.04.2020 01:00:00 11,3 7,9 4 2 S 1014,0 -
02.04.2020 00:00:00 12,8 8,6 5 3 SSW 1014,4 -
01.04.2020 23:00:00 13,9 8,3 4 2 S 1014,2 20
01.04.2020 22:00:00 15,2 7,7 21 11 WNW 1013,5 -
01.04.2020 21:00:00 15,9 6,5 18 10 SW 1012,1 -
01.04.2020 20:00:00 17,6 6,8 8 4 S 1011,9 25
01.04.2020 19:00:00 18,9 9,1 9 5 SSE 1011,8 -
01.04.2020 18:00:00 18,5 9,6 13 7 N 1011,7 -
01.04.2020 17:00:00 17,5 10,8 15 8 SSE 1011,7 30
01.04.2020 16:00:00 18,0 11,4 15 8 SE 1012,3 -
01.04.2020 15:00:00 16,3 9,4 13 7 E 1012,9 30
01.04.2020 14:00:00 17,6 12,3 18 10 S 1012,6 30
01.04.2020 13:00:00 16,6 12,7 16 9 S 1013,4 -
01.04.2020 12:00:00 16,5 11,9 0 0 N 1013,9 -
01.04.2020 11:00:00 14,5 12,4 0 0 N 1013,9 20
01.04.2020 10:00:00 12,8 11,6 9 5 NW 1013,4 -
01.04.2020 09:00:00 11,9 11,2 11 6 W 1012,8 20
01.04.2020 08:00:00 11,7 11,1 11 6 WNW 1012,1 15
01.04.2020 07:00:00 12,1 11,4 11 6 WNW 1011,7 -
01.04.2020 06:00:00 12,4 11,7 5 3 NW 1011,4 -
01.04.2020 05:00:00 12,4 11,8 8 4 W 1011,3 15
01.04.2020 04:00:00 12,5 11,8 2 1 SSW 1011,2 -
01.04.2020 03:00:00 13,3 12,4 4 2 W 1011,6 -
01.04.2020 02:00:00 13,6 11,7 9 5 SSW 1011,7 15
01.04.2020 01:00:00 14,4 12,1 9 5 S 1011,5 -
01.04.2020 00:00:00 14,5 12,3 5 3 S 1011,3 -
31.03.2020 23:00:00 14,8 12,2 9 5 SSW 1011,0 12
31.03.2020 22:00:00 15,3 13,9 11 6 ESE 1010,3 -
31.03.2020 21:00:00 15,1 13,6 16 9 ESE 1009,7 -
31.03.2020 20:00:00 15,4 14,0 15 8 ESE 1008,8 15
31.03.2020 19:00:00 15,2 14,2 18 10 SE 1008,3 -
31.03.2020 18:00:00 15,4 14,0 18 10 SE 1008,2 -
31.03.2020 17:00:00 16,0 15,1 11 6 SSE 1007,9 12
31.03.2020 16:00:00 14,7 13,2 22 12 E 1007,8 -
31.03.2020 15:00:00 14,9 12,9 16 9 E 1007,7 12
31.03.2020 14:00:00 13,0 12,5 15 8 ENE 1008,2 8
31.03.2020 13:00:00 13,0 12,6 8 4 E 1008,3 -
31.03.2020 12:00:00 13,2 12,4 11 6 ESE 1007,5 -
31.03.2020 11:00:00 13,3 12,5 13 7 S 1007,1 6
31.03.2020 10:00:00 13,9 12,6 24 13 SSE 1005,9 -
31.03.2020 09:00:00 13,8 12,7 34 18 SE 1005,7 6
31.03.2020 08:00:00 13,4 12,5 39 21 E 1004,7 5
31.03.2020 07:00:00 13,1 12,3 34 18 E 1004,8 -
31.03.2020 06:00:00 12,9 11,4 26 14 E 1005,4 -
31.03.2020 05:00:00 13,0 11,8 18 10 ESE 1006,6 5
31.03.2020 04:00:00 12,7 11,5 18 10 ESE 1006,6 -
31.03.2020 03:00:00 13,6 12,8 11 6 SE 1007,3 -
31.03.2020 02:00:00 14,1 12,4 13 7 SE 1007,3 6
31.03.2020 01:00:00 15,1 12,8 15 8 ESE 1007,8 -
31.03.2020 00:00:00 15,1 12,7 13 7 E 1007,7 -
30.03.2020 23:00:00 15,2 12,4 11 6 ESE 1008,6 15
30.03.2020 22:00:00 15,2 12,2 15 8 E 1008,4 -

tt = temperature
td = dewpoint
ff = wind speed
dd = wind direction
ppp = reduced air pressure
vv = visibility

Next stations